Retour au catalogue

STARLINK-5266

ActifCommunicationsVLEO
NORAD 55290·PAYLOAD·🇺🇸 United States

Lancé Jan 19, 2023 depuis Vandenberg Space Force Base

Loading…

Prochains Passages (prochaines 24 heures)

TLE

FraisSource: CelesTrak SupGP

Époque: Sep 15, 2026, 01:44 UTC

1 55290C 23010X   26258.07270833 -.00016984  00000+0 -14229-2 0  2587
2 55290  69.9999 266.9870 0003822 264.9567 181.3870 14.98348650    13

Suivez STARLINK-5266 en temps réel avec AllMySat

Download on the App Store